EDT,Max TemperatureF,Mean TemperatureF,Min TemperatureF,Max Dew PointF,MeanDew PointF,Min DewpointF,Max Humidity, Mean Humidity, Min Humidity, Max Sea Level PressureIn, Mean Sea Level PressureIn, Min Sea Level PressureIn, Max VisibilityMiles, Mean VisibilityMiles, Min VisibilityMiles, Max Wind SpeedMPH, Mean Wind SpeedMPH, Max Gust SpeedMPH,PrecipitationIn, CloudCover, Events, WindDirDegrees
2013-6-1,73,70,66,63,61,59,88,72,61,29.82,29.80,29.78,10,10,10,15,9,21,0.00,7,,211
2013-6-2,62,60,57,59,50,43,88,73,59,29.99,29.91,29.82,10,10,10,14,10,,0.00,8,,308
2013-6-3,66,55,44,45,39,37,87,50,35,30.11,30.08,30.04,10,10,10,9,3,,0.00,1,,344
2013-6-4,73,60,48,46,43,41,82,48,33,30.19,30.16,30.12,10,10,10,8,3,,0.00,0,,105
2013-6-5,75,65,55,46,45,43,67,41,34,30.14,30.02,29.95,10,10,10,12,8,,0.00,2,,102
2013-6-6,71,64,57,50,48,46,72,55,41,29.91,29.89,29.85,10,10,10,10,6,,0.00,5,,48
2013-6-7,71,62,53,50,48,46,82,57,43,29.92,29.90,29.88,10,10,10,9,6,,0.00,4,,33
2013-6-8,73,65,57,52,50,46,82,57,38,30.01,29.99,29.97,10,10,10,5,0,,0.00,5,,270
2013-6-9,80,72,64,59,56,52,73,55,37,30.05,30.00,29.92,10,9,7,10,6,,0.00,6,,136
2013-6-10,73,70,66,64,63,61,94,80,69,29.81,29.78,29.77,10,9,3,14,6,18,0.00,7,Rain,268
2013-6-11,82,71,60,63,61,57,100,66,45,29.95,29.90,29.86,10,8,1,13,5,17,0.00,3,,241
2013-6-12,84,76,68,72,68,64,94,73,58,29.92,29.85,29.73,10,8,5,9,3,,0.00,2,,178
2013-6-13,75,68,62,63,54,50,94,64,41,29.96,29.84,29.73,10,10,7,12,6,17,0.00,4,,337
2013-6-14,77,66,55,55,53,48,94,60,36,30.12,30.08,30.05,10,10,10,8,3,,0.00,2,,24
2013-6-15,73,68,64,64,60,57,88,72,57,30.09,30.05,30.01,10,10,10,9,4,,0.00,5,Rain,206
2013-6-16,82,75,68,64,62,59,88,63,45,29.93,29.92,29.91,10,10,10,14,9,20,0.00,5,,270
2013-6-17,86,76,66,66,56,46,94,48,25,29.99,29.93,29.89,10,9,3,14,3,23,0.00,1,,268
2013-6-18,75,68,62,61,56,50,94,67,47,30.02,29.99,29.91,10,10,5,12,6,18,0.00,5,,50
2013-6-19,75,64,53,46,43,39,67,41,29,30.17,30.14,30.10,10,10,10,8,3,,0.00,0,,42
2013-6-20,84,70,57,57,52,46,82,44,30,30.20,30.18,30.14,10,10,10,6,1,,0.00,1,,146
2013-6-21,86,76,66,64,59,55,78,55,35,30.18,30.13,30.02,10,10,10,14,7,21,0.00,0,Rain,188
2013-6-22,84,78,71,70,68,66,83,72,58,30.11,30.07,30.00,10,9,7,9,3,,0.00,1,,220
2013-6-23,87,79,71,64,63,59,78,54,40,30.08,30.05,30.00,10,10,10,12,6,18,0.00,0,,201
2013-6-24,86,78,71,68,64,59,88,61,40,30.10,30.04,29.99,10,9,4,12,7,21,0.00,2,,219
2013-6-25,87,78,68,72,69,66,100,76,52,29.99,29.93,29.85,10,9,4,14,7,21,0.00,4,Rain-Thunderstorm,200
2013-6-26,80,73,66,68,66,63,94,80,54,29.92,29.83,29.77,10,9,4,14,8,21,0.00,5,Rain-Thunderstorm,181
2013-6-27,84,76,68,72,67,64,100,74,54,29.78,29.77,29.73,10,8,1,14,7,21,0.00,5,,285
2013-6-28,78,72,66,66,61,55,100,64,44,29.68,29.65,29.60,10,10,10,12,9,21,0.00,3,,299
2013-6-29,75,68,62,63,61,59,100,81,57,29.66,29.63,29.61,10,8,3,7,4,,0.00,7,Rain,26
2013-6-30,77,70,62,61,57,52,88,66,47,29.89,29.86,29.82,10,10,10,12,6,16,0.00,6,Rain,42